Location: Dompnac
(44.5644°N, 4.1026°E)
Time: 09:56:45
(UTC+00:00)

Cosmos 2026 Rocket - Pass Details

Date: 17 January 2021
Orbit: 940 x 1000 km, 82.9° (Epoch: 26 February)

Event Time Altitude Azimuth Distance (km) Brightness Sun altitude
Rises 18:20:19 0° 156° (SSE) 3,594 6.8 -18.9°
Reaches altitude 10° 18:23:02 10° 147° (SSE) 2,659 6.1 -19.4°
Enters shadow 18:26:25 27° 118° (ESE) 1,749 4.9 -19.9°
